Simultaneous Nadir Overpasses (SNOs) Predictions

Prediction of SNOs near US between NOAA-19 and NPP Satellite Orbit:

Table of predicted SNOs near US for the next 10.0 days since TLE Epoch: 4/28/2012
<
Index Date (NOAA-19) Time (NOAA-19) NOAA-19 Lat,Lon Date (NPP) Time (NPP) NPP Lat,Lon Distance(km) Time Diff (sec)
1 05/03/2012 07:03:14 49.91, -72.13 05/03/2012 07:06:29 50.49, -75.05 217.18 195
2 05/03/2012 08:45:19 49.93, -97.65 05/03/2012 08:47:59 50.48,-100.43 207.09 160
3 05/03/2012 18:35:35 49.99, -86.48 05/03/2012 18:34:52 49.70, -88.15 123.88 43
4 05/03/2012 20:17:40 49.97,-112.00 05/03/2012 20:16:22 49.70,-113.53 113.73 78
5 05/04/2012 06:57:23 32.87, -75.53 05/04/2012 06:52:27 33.10, -76.49 92.65 296
6 05/04/2012 08:40:03 30.85,-101.64 05/04/2012 08:34:32 31.04,-102.45 80.36 331
7 05/04/2012 18:24:48
